VINASAT-1

Last updated on Tue Jul 01 2025 00:02:44 GMT+0000 (Coordinated Universal Time)

1 32767U 08018A 25181.60595619 -.00000329 00000+0 00000+0 0 9993 2 32767 0.0090 16.4909 0001462 94.5469 157.9521 1.00270920 63061
UTC large
Height (km)
Speed (km/s)
/
Latitude / Longitude
Inclination (degrees)
Orbital Period (minutes)
Azimuth
Elevation
Range (km)
Doppler Factor

Next 0 passes for location: London (51.5072 / 0.1276)

Sorry there are no passes over London.